Find Kosmos-1795

NORAD ID: 17139 Int'l Des: 1986-092 Owner: UNKS Country: SU operational
LEOCIRCULAR

Live-Position

3D-Globus wird geladen...

Über Kosmos-1795

Beschreibung wird geladen...

Nächste Überflüge

Passes for default location (London). Set your location on the main map for personalized predictions.

Höhenverlauf

Loading altitude history...

Zweizeiliger Elementsatz

1 17139U 86092B 26104.80860953 .00000013 00000-0 19857-3 0 9995
2 17139 74.0103 118.7116 0010690 292.9919 240.3811 12.47815153794635
Epoch: 14. Apr. 2026 • Age: 11 hours

Aktueller Status

Höhe 1481.5 km
Geschwindigkeit 7.12 km/s
Subsatellitenpunkt 20.65°N, 14.61°W
Startdatum 21. Nov. 1986
Alter 39.3 years
Typ other

Technische Details

Klassifizierung Payload
Masse 60.00 kg
Trockenmasse 60.00 kg
Gesamtmasse 60.00 kg
Länge 0.80 m
Durchmesser 0.80 m
Spannweite 0.80 m
Form Poly
Hersteller NPOPM
Bus-Typ Strela-1 11F625
Phasenstatus In Orbit
Besitzer/Staat UNKS/SU

Most Searched